Aérodrome :







RETROUVEZ-NOUS SUR...

 
LOGIN :

S'inscrire | Disclaimer

   EN    FR    IT 

 









Légende :    VFR   VFR Marginal   IFR   IFR Intensif   IFR Très Intensif
Visi : 
Plafond : 
>= 8 km
>= 3000ft
5 à 8 km
1000 à 3000 ft
1500m à 5 km
500 à 1000 ft
800 à 1500m
200 à 500 ft
< 800m
< 200 ft
Symboles :   Orages  Brouillard  Fortes neiges  Fortes précipitations  Vent > 20 kt






- Altitude de l'aérodrome : 235 ft
- Code IATA : CCS


SVMI - Simon Bolivar

DERNIER METAR :
  • 042202Z AUTO 35005KT NCD ///// Q1009

METARs EXPIRÉS :
  • 042200Z 14003KT 9999 FEW016 BKN070 30/22 Q1009 NOSIG
  • 042100Z 11001KT 9999 FEW016 BKN070 30/23 Q1009 NOSIG

TAF TAF SVMI
Valide du 04 à 12h jusqu'au 05 à 12h UTC


041000Z 0412/0512 09003KT 9999 SCT016 TX29/19Z TN23/09Z
BECMG 0412/0416 14003KT 9999 SCT070



MET'MAP, la Météo Aéronautique d'un coup d'oeil ! - Copyright ORBIFLY Décembre 2007 - Disclaimer

ORBIFLY MET'MAP TEAM :

Programmation & Développement : Alexandra Zaïnal
Sur une idée originale de : Baudouin d'Aumeries
Assistance à la programmation : Marc-Olivier Méhu
Soutien technique & logistique : Manuel Goepfert

Contact : metmap@orbifly.com




SOURCES & CREDITS :

   NOAA